Retour au catalogue

FENGYUN 1C DEB

ActifSSO
NORAD 30340·DEBRIS·🇨🇳 China

Lancé May 10, 1999 depuis Taiyuan Satellite Launch Center

Loading…

Prochains Passages (prochaines 24 heures)

TLE

FraisSource: Space-Track

Époque: Sep 14, 2026, 22:52 UTC

1 30340U 99025ABB 26257.95337653 -.00000185  00000-0 -80646-4 0  9992
2 30340  98.9641 316.8281 0146358  85.3053  91.4352 14.04707367  6581

Suivez FENGYUN 1C DEB en temps réel avec AllMySat

Download on the App Store